Overview Statistics Trail Chart Weather Telemetry Raw packets
 

This is the latest recevied weather packets stored in our database for station/object DC9VQ-13. If no packets are shown the sender has not sent any weather packets the latest 10 day(s).

<< 6 7 8 9 10 11 12 >>
Time Temp. Humidity Pressure Rain* Wind** Luminosity Snow
1788526830 28.33° C 56% 1013.2 hPa 0 mm - - -
1788526228 28.33° C 56% 1013.2 hPa 0 mm - - -
1788525627 28.33° C 57% 1013.4 hPa 0 mm - - -
1788525036 28.33° C 57% 1013.5 hPa 0 mm - - -
1788524423 28.89° C 57% 1013.6 hPa 0 mm - - -
1788523820 28.89° C 57% 1013.8 hPa 0 mm - - -
1788523228 28.89° C 57% 1013.9 hPa 0 mm - - -
1788522617 28.89° C 57% 1014 hPa 0 mm - - -
1788522015 28.33° C 58% 1014.1 hPa 0 mm - - -
1788521421 27.78° C 59% 1014.2 hPa 0 mm - - -
1788520811 27.78° C 61% 1014.3 hPa 0 mm - - -
1788520218 27.22° C 63% 1014.5 hPa 0 mm - - -
1788519305 26.67° C 63% 1014.9 hPa 0 mm - - -
1788518713 26.67° C 63% 1015 hPa 0 mm - - -
1788518101 26.67° C 64% 1014.9 hPa 0 mm - - -
1788517499 26.11° C 64% 1015 hPa 0 mm - - -
1788516896 26.11° C 65% 1014.9 hPa 0 mm - - -
1788516295 25.56° C 66% 1014.8 hPa 0 mm - - -
1788515692 25° C 69% 1014.9 hPa 0 mm - - -
1788515091 25° C 69% 1014.9 hPa 0 mm - - -
1788514488 24.44° C 71% 1015.1 hPa 0 mm - - -
1788513886 23.89° C 72% 1015.3 hPa 0 mm - - -
1788513285 23.89° C 73% 1015.6 hPa 0 mm - - -
1788512683 23.33° C 74% 1015.8 hPa 0 mm - - -
1788512081 22.78° C 75% 1016 hPa 0 mm - - -

* Rain latest hour (hover to see other rain measurements)
** Current wind speed in m/s (hover to see current wind gust speed)